Overview Statistics Trail Chart Weather Telemetry Raw packets
 

This is the latest recevied weather packets stored in our database for station/object EA8BQU-10. If no packets are shown the sender has not sent any weather packets the latest 10 day(s).

<< 3 4 5 6 7 8 9 >>
Time Temp. Humidity Pressure Rain* Wind** Luminosity Snow
1788530553 25.56° C 100% 1019.9 hPa - - - -
1788529653 25.56° C 100% 1020.1 hPa - - - -
1788528753 25.56° C 100% 1019.9 hPa - - - -
1788527852 25.56° C 100% 1020.2 hPa - - - -
1788527067 26.11° C 100% 1019.9 hPa - - - -
1788526952 26.11° C 100% 1019.9 hPa - - - -
1788526052 26.67° C 100% 1020 hPa - - - -
1788525152 25.56° C 100% 1019.9 hPa - - - -
1788524552 25.56° C 100% 1021 hPa - - - -
1788524252 25.56° C 100% 1021 hPa - - - -
1788523347 25.56° C 100% 1021.2 hPa - - - -
1788522447 25.56° C 100% 1021.2 hPa - - - -
1788521547 25° C 100% 1021.4 hPa - - - -
1788520646 25° C 100% 1021.3 hPa - - - -
1788519875 25° C 100% 1021.3 hPa - - - -
1788519746 25° C 100% 1021.3 hPa - - - -
1788518844 25° C 100% 1021.5 hPa - - - -
1788517944 25° C 100% 1021.6 hPa - - - -
1788517362 24.44° C 100% 1021.5 hPa - - - -
1788517044 24.44° C 100% 1021.5 hPa - - - -
1788516143 25° C 100% 1021.3 hPa - - - -
1788515243 25° C 100% 1021.2 hPa - - - -
1788514342 24.44° C 100% 1021.3 hPa - - - -
1788514335 24.44° C 100% 1021.4 hPa - - - -
1788514003 24.44° C 100% 1021.2 hPa - - - -

* Rain since midnight (hover to see other rain measurements)
** Current wind speed in m/s (hover to see current wind gust speed)